Location: Unspecified
(0.0000°N, 0.0000°E)
Time: 19:03:50
(UTC+00:00)

Tiros 1 - Pass Details

Date: 24 November 2019
Orbit: 630 x 664 km, 48.4° (Epoch: 08 December)

Event Time Altitude Azimuth Distance (km) Brightness Sun altitude
Rises 08:46:51 0° 211° (SSW) 2,959 10.5 41.5°
Reaches altitude 10° 08:49:14 10° 207° (SSW) 2,041 9.8 42.1°
Maximum altitude 08:53:50 56° 129° (SE) 763 9.6 43.1°
Drops below altitude 10° 08:58:23 10° 51° (NE) 2,013 10.0 44.1°
Sets 09:00:43 0° 47° (NE) 2,914 10.7 44.6°
